Cloud_Cover
95 95 100 6 0 2 7 12 5 4 5 0 0 0 0 0 0 5 5 98 100 100 94 95 100 5 5 0 0 0 0 1 0 0 0 0 0 0 0 5 19 37 9 5
100 96 43 99 35 87 6 99 50 5 5 0 1 0 0 0 2 5 5 88 97 99 99 100 100 58 2 1 0 0 2 32 5 0 0 0 0 4 5 13 26 12 4 4
100 60 18 43 6 34 93 84 64 3 5 0 0 0 0 0 2 5 2 96 100 100 91 86 100 48 10 4 4 25 77 50 5 5 4 2 5 6 5 5 5 5 5 3
99 96 99 71 60 15 97 36 100 24 23 1 0 0 0 0 0 56 64 5 100 100 34 86 100 100 100 99 100 100 100 98 30 18 5 31 62 18 5 1 0 0 0 0
70 92 100 100 59 5 3 88 98 100 100 5 0 0 0 0 0 5 5 5 95 100 60 8 90 100 100 100 99 85 38 67 96 75 38 5 5 5 0 0 0 1 5 5
100 100 97 23 100 29 73 76 100 100 100 34 0 0 0 0 0 5 4 5 4 100 87 7 87 100 97 13 19 9 60 64 18 5 5 23 5 0 0 1 5 5 5 14
66 16 22 100 95 61 100 98 100 76 48 2 0 2 0 0 0 0 0 5 5 100 100 7 2 2 4 0 0 0 0 0 0 0 0 0 0 2 2 5 5 5 5 5
78 100 100 100 36 26 100 100 59 5 4 0 0 1 0 0 0 0 0 5 5 100 100 43 0 0 0 0 0 0 0 0 0 0 0 0 0 4 5 5 5 5 16 5
100 66 32 53 46 53 100 84 63 5 5 3 0 0 0 0 0 0 0 1 5 5 79 20 2 0 0 0 0 0 0 0 0 0 0 4 5 5 5 13 48 12 5 6
5 6 22 96 61 100 91 70 45 5 5 0 0 0 0 0 0 0 0 0 31 6 31 22 5 5 4 1 0 0 5 17 5 5 4 5 6 11 42 96 50 49 63 54
7 31 89 100 72 52 99 46 42 41 6 0 0 0 0 0 0 0 0 0 28 99 6 1 5 8 9 32 29 79 72 16 42 56 50 78 96 100 100 86 83 12 5 5
18 16 89 91 11 100 87 63 5 5 0 0 0 0 0 0 0 0 0 0 5 20 5 5 6 96 100 100 100 100 100 100 100 100 100 100 98 86 17 5 5 5 5 4
41 89 29 98 70 5 7 5 6 12 0 0 0 0 0 0 0 0 1 2 5 11 7 31 8 58 100 100 100 100 100 100 63 5 5 7 5 5 6 5 5 5 5 5
97 97 9 5 5 5 4 5 5 0 0 0 0 0 0 0 1 16 5 5 22 7 79 72 98 100 100 100 100 100 81 56 12 15 5 7 27 9 5 5 3 2 0 0
97 94 98 64 12 37 46 67 43 2 0 0 0 0 0 0 92 77 5 56 79 18 100 100 100 100 100 100 92 87 96 74 24 9 5 8 5 5 5 0 0 4 0 0
100 97 100 100 97 100 13 5 0 0 0 0 0 0 0 64 90 70 99 72 37 100 100 100 100 100 100 100 99 46 17 33 20 5 10 16 5 0 4 0 0 0 0 0
100 100 100 73 75 66 3 4 0 0 5 0 1 2 82 28 38 85 100 100 100 100 100 100 100 100 100 97 50 31 11 5 39 66 51 5 5 5 0 0 0 0 0 0
99 99 99 100 46 5 57 4 0 1 5 6 91 100 99 43 51 99 100 100 100 100 100 100 97 90 84 71 23 5 5 64 70 6 6 5 5 4 0 0 0 2 0 0
100 100 100 100 100 100 100 100 91 20 95 97 100 98 100 99 100 99 100 100 99 100 96 94 97 62 91 14 26 59 100 51 6 5 5 5 5 0 0 0 0 0 1 0
100 100 100 100 100 100 100 100 100 100 100 100 100 99 100 95 92 96 96 85 96 73 53 22 83 9 5 5 5 27 24 5 5 5 5 1 0 0 4 3 0 4 0 0
100 100 100 100 98 92 100 100 100 100 100 100 75 71 100 100 100 72 76 93 86 20 5 5 5 5 5 15 57 76 5 5 5 0 0 0 1 5 4 1 2 0 0 0
100 100 100 100 100 100 97 100 94 96 100 100 95 100 100 100 100 100 100 100 78 6 5 5 5 5 36 94 49 5 5 5 1 0 4 4 36 4 1 4 0 0 0 0
100 100 100 100 100 100 100 100 100 100 100 100 100 100 100 100 100 100 90 6 5 5 19 17 5 5 5 5 5 5 5 0 0 1 5 5 5 5 5 0 0 0 0 0
100 100 100 100 100 100 100 100 100 100 100 100 100 100 100 100 94 44 5 5 39 19 31 13 8 62 95 100 20 4 0 3 16 31 5 5 5 5 1 0 0 0 0 2
100 100 96 99 100 100 100 100 100 100 100 100 100 100 93 62 7 5 5 22 39 14 5 24 30 96 99 25 3 3 5 5 5 4 5 5 5 1 0 0 0 0 2 37
82 100 100 100 99 100 100 100 100 98 21 7 8 5 5 7 43 33 13 8 5 5 14 50 96 93 8 5 5 5 5 5 5 5 5 5 5 0 0 0 0 5 5 49